Quincy, IL

2:46 AM CDT on June 20, 2019 (GMT -0500)
Quincy Regional-Baldwin

Weather History for KUIN - May, 2019

Change the Weather History Date:

Saturday, May 25, 2019

  Actual Average Record
Temperature  
Mean Temperature 74 °F 66 °F  
Max Temperature 84 °F 75 °F 95 °F (1911)
Min Temperature 64 °F 56 °F 34 °F (1925)
Degree Days  
Heating Degree Days 0 3  
Month to date heating degree days 147 123  
Since 1 July heating degree days 5796 5553  
Cooling Degree Days 10 3  
Month to date cooling degree days 64 45  
Year to date cooling degree days 74 63  
Growing Degree Days 24 (Base 50)    
Moisture  
Dew Point 64 °F    
Average Humidity 73    
Maximum Humidity 94    
Minimum Humidity 51    
Precipitation  
Precipitation 0.56 in 0.16 in 1.76 in (1990)
Month to date precipitation 5.36 3.60  
Year to date precipitation 17.97 13.15  
Sea Level Pressure  
Sea Level Pressure 29.96 in    
Wind  
Wind Speed 11 mph ()    
Max Wind Speed 45 mph    
Max Gust Speed 70 mph    
Visibility 10.0 miles    
Events Rain , Thunderstorm    
T = Trace of Precipitation, MM = Missing Value Source: Averaged Metar Reports

Daily Weather History Graph

Daily Weather History Graph

Search for Another Location

Airport or City:

Astronomy

May. 25, 2019 Rise Set
Actual Time 5:42 AM CDT 8:21 PM CDT
Civil Twilight 5:10 AM CDT 8:53 PM CDT
Nautical Twilight 4:31 AM CDT 9:32 PM CDT
Astronomical Twilight 3:46 AM CDT 10:17 PM CDT
Moon 1:22 AM CDT (5/25) 11:41 AM CDT (5/25)
Length of Visible Light 15h 42m
Length of Day
14h 39m
Waning Gibbous, 59% of the Moon is Illuminated
May 25
Waning Gibbous
May 26
Last Quarter
Jun 3
New
Jun 10
First Quarter
Jun 17
Full

Hourly Weather History & Observations

Time (CDT) Temp. Heat Index Dew Point Humidity Pressure Visibility Wind Dir Wind Speed Gust Speed Precip Events Conditions
12:54 AM 69.1 °F - 60.1 °F 73% 29.95 in 10.0 mi West 9.2 mph - N/A   Clear
1:54 AM 66.9 °F - 60.1 °F 79% 29.91 in 10.0 mi South 8.1 mph - N/A   Clear
2:54 AM 66.9 °F - 60.1 °F 79% 29.89 in 10.0 mi SSW 10.4 mph - N/A   Clear
3:54 AM 66.9 °F - 60.1 °F 79% 29.88 in 10.0 mi SSW 13.8 mph - N/A   Clear
4:54 AM 68.0 °F - 60.1 °F 76% 29.86 in 10.0 mi South 12.7 mph - N/A   Mostly Cloudy
5:54 AM 66.9 °F - 61.0 °F 81% 29.93 in 10.0 mi SW 11.5 mph - 0.00 in   Mostly Cloudy
6:54 AM 66.9 °F - 62.1 °F 84% 29.94 in 10.0 mi South 6.9 mph - 0.00 in Rain Light Rain
7:54 AM 68.0 °F - 63.0 °F 84% 29.94 in 10.0 mi SSW 6.9 mph - 0.00 in   Clear
8:54 AM 71.1 °F - 63.0 °F 75% 29.96 in 10.0 mi WSW 6.9 mph - N/A   Partly Cloudy
9:54 AM 73.9 °F - 63.0 °F 68% 29.97 in 10.0 mi WSW 15.0 mph 19.6 mph N/A   Scattered Clouds
10:54 AM 77.0 °F - 63.0 °F 62% 29.97 in 10.0 mi WSW 20.7 mph 29.9 mph N/A   Partly Cloudy
11:54 AM 79.0 °F - 63.0 °F 58% 29.98 in 10.0 mi SW 18.4 mph 28.8 mph N/A   Clear
12:54 PM 80.1 °F 81.7 °F 64.0 °F 58% 29.97 in 10.0 mi WSW 19.6 mph 29.9 mph N/A   Mostly Cloudy
1:54 PM 81.0 °F 83.0 °F 66.0 °F 60% 29.97 in 10.0 mi WSW 11.5 mph 23.0 mph N/A   Mostly Cloudy
2:54 PM 82.0 °F 83.8 °F 64.9 °F 56% 29.97 in 10.0 mi West 16.1 mph - N/A   Overcast
3:54 PM 84.0 °F 85.8 °F 64.9 °F 53% 29.96 in 10.0 mi West 15.0 mph 25.3 mph N/A   Mostly Cloudy
4:54 PM 84.9 °F 87.1 °F 66.0 °F 53% 29.96 in 10.0 mi WSW 13.8 mph 24.2 mph N/A   Partly Cloudy
5:54 PM 84.0 °F 86.3 °F 66.0 °F 55% 29.96 in 10.0 mi SW 11.5 mph - N/A   Mostly Cloudy
6:54 PM 82.0 °F 84.1 °F 66.0 °F 58% 29.94 in 10.0 mi WSW 6.9 mph - N/A   Clear
7:54 PM 79.0 °F - 68.0 °F 69% 29.94 in 10.0 mi SSW 4.6 mph - N/A   Overcast
8:54 PM 77.0 °F - 66.9 °F 71% 29.93 in 10.0 mi SE 4.6 mph - N/A   Partly Cloudy
9:54 PM 78.1 °F - 66.9 °F 68% 29.93 in 10.0 mi SSE 6.9 mph - N/A   Overcast
10:15 PM 78.1 °F - 66.9 °F 68% 29.95 in 10.0 mi SSE 5.8 mph - N/A Thunderstorm Overcast
10:30 PM 73.9 °F - 64.9 °F 73% 30.00 in 10.0 mi North 10.4 mph - N/A   Overcast
10:39 PM 69.1 °F - 62.1 °F 78% 30.00 in 10.0 mi North 31.1 mph 43.7 mph 0.00 in Rain , Thunderstorm Light Rain
10:52 PM 64.4 °F - 62.6 °F 94% 30.05 in - NNW 21.9 mph 38.0 mph 0.14 in Rain , Thunderstorm Heavy Thunderstorms and Rain
10:54 PM 64.0 °F - 62.1 °F 93% 30.02 in - North 21.9 mph 38.0 mph 0.25 in Rain , Thunderstorm Heavy Thunderstorms and Rain
11:02 PM 64.9 °F - 63.0 °F 93% 30.03 in - North 16.1 mph 26.5 mph 0.15 in Rain , Thunderstorm Heavy Thunderstorms and Rain
11:43 PM 64.9 °F - 63.0 °F 93% 30.01 in - North 6.9 mph - 0.21 in Thunderstorm Thunderstorm
11:54 PM 66.0 °F - 64.0 °F 93% 30.00 in 10.0 mi ESE 9.2 mph - 0.21 in Thunderstorm Unknown